RH
100 99 99 100 95 91 90 82 86 81 78 77 73 73 83 83 84 83 96 96 89 98 96 96 97 98 95 92 96 87 78 75 96 96 97 93 99 95 92 94 96 93 97 95 95 98 98 86 86 93 97 95 90 90
100 100 100 99 97 87 85 82 79 80 76 74 73 72 84 78 80 80 86 84 79 89 98 90 95 92 94 95 98 93 92 93 96 95 94 90 90 90 97 96 90 95 98 96 99 98 96 96 97 96 96 94 90 91
100 99 99 91 90 85 81 83 78 76 77 75 71 82 82 90 89 69 80 76 79 93 96 91 95 87 82 93 98 98 90 96 96 96 96 95 98 89 96 96 96 93 89 97 94 97 99 97 89 88 90 92 87 80
97 91 91 87 84 82 80 81 81 76 75 72 82 85 90 94 98 58 74 98 86 92 93 96 95 94 79 90 96 98 95 95 93 92 95 96 94 82 96 93 92 98 89 100 100 93 95 95 93 95 86 77 79 88
92 88 86 85 88 87 83 80 80 77 76 81 86 83 94 74 45 42 49 77 89 90 97 96 88 77 85 67 84 92 96 94 94 96 95 98 94 84 86 83 98 99 100 99 99 97 98 96 96 95 94 93 94 99
89 90 86 85 84 82 81 80 79 77 74 81 92 88 92 82 77 86 88 56 81 84 96 96 93 57 57 91 67 75 93 91 95 96 98 98 94 87 96 100 98 98 97 98 99 96 97 96 97 97 98 97 96 97
85 83 81 81 81 81 81 80 79 76 92 88 95 94 92 80 47 66 79 70 87 81 95 94 94 65 55 73 83 78 64 93 93 98 98 93 89 75 95 99 97 97 97 97 97 96 92 94 97 96 98 95 98 96
83 81 81 83 83 83 83 79 77 97 83 82 76 70 65 55 51 67 53 51 50 47 59 95 81 66 55 81 94 83 91 90 85 98 92 87 76 82 98 98 98 95 92 93 94 90 96 94 86 82 83 95 95 97
82 83 83 82 80 74 74 75 88 98 92 76 62 28 23 38 53 60 59 29 33 52 92 91 97 97 55 60 84 89 84 92 76 87 85 59 79 100 100 100 99 99 99 97 94 82 84 93 91 88 91 90 100 95
83 84 83 77 72 69 89 84 98 96 60 46 28 22 64 61 54 32 28 59 67 69 83 97 67 95 75 73 89 89 96 96 100 97 68 92 100 98 98 97 97 97 98 92 95 86 88 86 92 94 97 91 90 98
80 86 81 72 72 82 93 98 96 75 47 26 33 53 36 31 30 54 84 90 85 96 90 92 91 95 70 99 100 98 99 94 99 96 84 97 99 98 91 91 77 75 74 75 90 84 76 83 91 90 88 88 88 87
77 81 80 72 67 79 86 74 56 49 42 37 30 31 29 56 74 74 93 78 93 100 94 100 95 82 90 90 97 90 95 87 100 85 88 100 94 93 95 91 81 76 78 78 78 81 80 77 78 81 86 88 88 89
74 76 82 82 71 68 69 63 49 25 15 18 36 71 78 86 92 98 100 93 99 94 96 98 97 97 84 76 94 91 95 100 78 96 100 99 96 88 94 91 86 80 80 84 84 84 90 88 87 91 94 94 95 98
66 65 73 78 85 77 70 62 16 13 20 81 82 94 93 99 99 100 100 98 85 96 94 98 100 99 94 87 99 82 88 85 94 100 100 97 89 89 93 89 93 91 91 92 94 93 98 98 98 93 94 92 96 100
72 67 62 69 73 72 70 30 16 18 49 91 84 100 100 92 92 95 91 94 86 89 94 97 94 83 94 86 87 82 83 99 98 99 96 92 90 95 94 91 94 93 96 100 98 100 99 97 99 97 90 93 94 92
60 68 65 58 49 45 32 22 25 40 56 82 91 96 85 93 95 96 99 98 78 96 92 84 89 92 98 97 94 100 93 100 95 98 91 92 92 93 93 96 95 97 100 100 100 99 100 100 100 100 97 90 85 89
48 50 55 53 49 34 24 33 49 74 91 87 100 81 92 98 100 98 98 89 79 90 100 94 97 100 93 97 100 100 100 97 92 89 78 81 88 89 97 89 95 100 100 100 100 98 100 98 98 100 100 86 88 90
53 52 48 28 20 28 34 44 58 84 94 99 94 93 84 82 92 89 73 70 88 92 88 98 88 100 100 100 98 97 90 85 75 76 80 78 83 82 77 87 97 100 100 100 98 100 94 97 100 100 99 98 100 95
54 45 37 18 18 24 41 49 54 99 100 98 89 74 84 77 62 64 62 63 67 71 89 94 99 100 100 100 97 87 84 85 92 84 81 78 73 74 84 95 97 98 97 99 98 99 99 96 100 98 96 89 90 97
49 47 21 18 18 33 69 78 55 80 87 90 86 94 98 95 79 77 74 77 83 95 97 99 100 99 99 90 89 93 91 92 96 92 80 73 81 86 96 95 96 96 100 100 97 89 91 98 93 92 93 95 94 92
21 21 21 23 33 51 85 96 97 100 98 92 98 94 91 86 95 99 99 88 95 100 100 100 99 90 91 97 97 98 98 100 100 98 94 95 88 87 85 88 96 100 100 100 100 100 96 97 96 94 100 100 96 100
22 22 23 22 36 44 73 77 88 81 90 95 97 96 100 99 100 98 99 98 100 98 98 98 93 96 93 94 94 95 93 90 87 90 84 89 97 87 84 85 93 99 100 100 100 100 100 100 99 100 100 100 97 93
21 26 36 37 63 72 81 68 83 94 80 89 94 87 95 99 94 84 97 98 94 94 96 98 97 98 99 97 97 96 98 99 100 99 99 100 100 100 100 99 97 99 98 97 96 100 100 97 95 95 100 97 96 100
28 54 87 88 76 85 86 91 93 91 93 96 100 97 94 100 94 96 99 96 95 96 96 96 98 93 84 82 89 94 98 100 100 100 100 100 98 96 100 100 100 100 100 100 100 100 100 100 98 100 99 100 100 100
71 85 78 85 93 84 93 93 94 93 100 100 96 96 96 98 95 98 97 93 83 84 87 91 92 95 95 89 86 89 94 99 100 99 94 100 100 100 95 93 98 98 98 100 100 100 100 100 100 100 100 100 100 97
98 98 89 100 98 90 99 99 100 100 100 98 100 98 99 96 96 98 96 92 93 93 94 95 95 93 90 96 96 96 97 98 100 100 93 99 100 100 100 100 98 88 85 97 100 100 100 100 100 100 100 98 99 100
91 95 95 78 93 87 94 96 95 97 100 100 100 100 96 100 98 90 76 83 95 97 98 98 99 99 98 97 98 97 97 97 98 98 97 97 97 98 99 100 99 95 99 100 100 100 100 100 100 99 99 100 100 100
100 97 88 92 97 96 99 100 100 100 100 96 95 96 100 98 95 89 92 90 94 95 94 95 96 97 98 96 96 98 99 100 100 98 94 94 95 95 96 96 97 100 99 98 99 99 99 100 100 100 100 100 100 100
93 95 93 91 95 98 100 98 99 98 94 99 100 94 91 86 78 70 70 71 85 94 100 99 94 97 100 99 96 96 96 97 100 91 89 85 84 82 90 99 97 97 97 96 95 100 99 98 98 98 98 98 98 98
88 99 90 99 89 85 92 98 96 94 94 96 96 94 87 72 46 49 70 75 88 95 94 96 100 99 100 100 100 95 91 93 97 98 96 93 94 97 97 97 97 97 97 98 98 95 97 97 95 95 96 96 98 99
90 92 86 98 85 95 95 93 93 97 98 100 100 100 93 73 51 51 64 65 83 88 94 98 98 98 100 100 100 100 95 89 100 100 100 99 97 97 97 97 96 97 97 97 97 97 97 98 99 99 99 98 98 98
93 100 89 68 80 88 88 93 98 98 98 100 94 100 96 96 88 46 50 54 77 91 98 99 100 90 90 94 97 100 100 100 100 100 98 97 96 97 97 96 96 97 99 100 98 99 100 100 99 98 99 98 98 98
93 94 95 90 83 77 91 89 83 80 87 89 89 96 98 91 76 46 46 56 76 86 89 95 85 83 86 86 92 97 93 79 87 99 100 100 99 99 97 96 98 97 97 98 97 97 96 97 97 98 99 99 100 100
Wind_Speed
23 20 19 17 14 10 9 6 5 3 1 0 1 2 1 1 1 2 4 3 2 2 3 7 6 4 3 2 1 3 3 3 1 3 2 3 1 2 4 3 4 4 3 3 1 3 3 7 1 2 1 3 5 4
22 19 17 13 12 9 7 5 4 3 1 1 2 3 2 1 2 3 4 3 1 7 2 15 16 15 5 3 1 2 3 2 2 2 2 2 3 3 1 2 4 2 3 2 2 2 3 4 6 5 4 3 4 4
20 16 15 12 11 8 7 5 3 2 1 2 3 3 1 2 2 4 7 4 5 4 4 3 3 11 15 4 4 1 3 2 1 1 2 2 6 3 2 3 2 6 6 3 2 5 3 5 6 7 6 4 5 7
18 15 13 10 9 7 5 4 2 1 1 2 2 3 4 5 6 4 8 5 5 3 3 2 6 4 15 9 6 6 13 4 5 3 3 3 3 5 3 2 3 2 4 4 2 3 2 5 5 5 7 7 7 8
15 14 11 9 8 5 4 2 2 1 1 2 3 4 10 14 17 20 25 20 11 2 2 2 3 17 9 22 21 22 14 5 3 3 4 3 2 3 2 3 4 4 1 2 2 3 3 3 4 5 5 5 7 5
15 12 10 8 6 4 4 3 3 3 3 4 5 6 17 15 7 5 4 6 18 3 3 2 4 12 22 6 22 21 14 8 3 3 2 2 3 3 3 3 3 4 4 0 2 5 3 4 3 4 4 8 11 8
14 12 9 7 6 5 5 4 5 6 14 15 16 20 17 13 13 13 2 15 9 1 2 3 2 8 20 7 6 4 15 3 3 2 3 3 4 4 3 2 6 6 5 4 4 5 3 2 3 13 10 12 13 14
13 11 11 9 8 6 5 4 7 19 22 23 25 26 25 22 16 19 25 16 7 11 8 3 4 3 15 4 3 5 2 3 5 2 2 2 3 3 3 4 5 6 6 3 6 8 4 7 7 9 12 10 10 11
16 14 12 11 9 6 3 6 10 24 25 21 19 15 9 11 6 7 8 18 29 12 3 3 5 4 11 4 3 3 2 3 2 3 2 3 3 4 3 3 5 5 3 6 7 8 8 4 5 9 9 11 3 6
17 15 13 14 13 8 8 8 23 27 20 12 4 8 3 8 6 3 7 7 10 9 4 2 5 3 4 3 3 3 2 2 3 3 3 3 2 3 4 4 5 6 8 10 6 8 8 8 7 6 6 13 13 12
20 18 17 19 18 14 12 22 23 18 11 3 5 3 3 8 7 7 4 4 4 5 3 3 3 4 4 2 2 2 1 2 3 3 3 2 2 3 5 7 12 11 12 11 8 8 12 13 8 9 11 12 12 14
23 21 18 18 20 12 12 12 11 9 10 11 18 11 8 11 5 7 3 4 5 1 4 3 4 3 3 3 3 4 2 3 2 1 3 2 3 5 5 6 13 12 13 12 12 13 14 14 14 14 14 13 14 15
21 21 18 16 18 23 25 26 27 26 15 11 10 6 5 5 12 7 7 5 4 4 2 3 4 2 4 4 2 4 5 1 1 4 1 2 3 6 5 8 11 14 14 14 13 14 15 15 16 15 15 17 17 18
21 24 23 20 17 15 15 13 12 10 12 5 5 8 4 5 4 1 2 2 4 2 5 3 2 2 2 4 0 5 2 3 4 4 3 3 5 7 7 12 11 13 15 14 16 16 16 16 16 18 17 18 18 19
22 21 22 24 24 23 21 15 12 15 9 4 5 5 3 1 2 3 3 2 2 2 2 2 2 2 3 4 3 3 6 3 1 3 3 4 8 7 7 12 12 13 15 16 16 15 18 19 19 20 20 20 20 18
26 26 24 22 23 24 28 36 36 17 8 5 7 4 2 2 4 3 2 3 3 2 1 3 2 4 4 2 5 2 3 2 3 3 5 6 6 6 13 14 16 16 16 17 18 20 19 18 18 19 22 20 17 16
25 36 29 29 29 27 22 19 10 10 5 6 3 3 2 1 3 3 2 4 10 2 1 2 5 2 1 4 4 1 2 3 7 7 7 11 10 15 16 20 18 17 16 17 17 17 19 21 21 19 18 18 18 19
19 11 9 13 25 37 43 17 9 6 7 3 3 3 2 2 3 3 6 13 4 2 2 2 3 6 2 1 3 3 6 5 6 8 10 17 18 20 20 20 19 18 18 18 20 22 22 21 18 14 16 18 18 20
21 23 22 19 17 12 8 11 11 5 1 1 2 5 2 2 13 12 13 15 10 8 3 3 5 1 2 2 4 7 6 6 8 8 16 18 19 21 23 22 20 19 18 20 21 19 21 18 18 14 14 17 18 17
31 27 18 11 6 7 7 5 6 5 2 1 4 3 2 2 8 11 14 12 6 3 5 4 1 2 3 6 10 11 13 15 12 8 9 15 18 19 17 19 18 19 19 18 18 17 20 14 15 16 18 18 17 19
39 34 34 30 19 16 9 3 4 2 1 3 4 2 2 5 3 4 3 10 4 2 2 2 3 10 17 20 21 19 19 19 14 13 10 10 21 19 20 19 18 18 19 18 16 17 17 16 18 21 20 17 20 20
26 17 17 22 10 9 10 13 4 2 3 0 3 2 3 3 3 3 9 4 1 2 2 3 9 15 16 17 17 18 21 22 21 19 21 21 15 18 18 18 17 17 17 17 18 18 19 19 22 20 15 19 18 23
12 9 8 12 8 7 3 7 5 6 4 4 3 4 4 4 2 12 2 2 2 6 13 14 16 18 18 23 21 21 18 18 18 18 19 20 21 21 20 20 18 18 19 20 19 19 20 21 21 21 20 20 22 20
12 10 7 5 7 2 3 6 3 4 4 4 4 4 5 3 5 3 2 2 3 12 13 16 17 17 17 15 15 18 18 18 19 21 19 18 19 20 18 21 22 22 22 24 22 21 22 21 20 21 22 20 20 19
7 10 7 7 4 6 7 6 6 5 3 3 4 4 4 3 3 3 3 3 6 11 18 21 19 16 11 16 19 20 20 17 17 20 26 19 21 21 21 20 21 24 23 21 21 20 21 21 21 22 22 21 22 27
8 5 5 2 4 4 2 4 4 3 2 5 2 3 3 2 5 4 2 3 4 15 21 22 20 19 19 18 20 23 25 26 23 20 27 20 19 19 21 20 20 26 20 16 19 20 23 24 24 24 23 26 25 23
7 5 3 5 0 2 3 2 1 3 4 4 3 5 3 5 3 3 4 7 13 26 29 28 23 21 22 26 27 27 28 25 22 23 27 25 21 19 22 23 23 26 27 28 30 29 29 29 26 25 26 26 25 25
2 3 4 5 3 2 4 3 3 3 2 2 2 5 2 2 3 2 5 21 29 32 34 29 25 23 24 26 27 29 28 27 26 23 24 21 17 23 23 25 29 29 27 28 26 26 25 26 27 29 29 28 27 24
3 3 0 6 4 4 2 2 2 2 1 2 1 2 3 3 6 12 24 26 27 29 25 28 30 30 25 25 24 25 27 25 22 21 18 14 27 30 33 33 32 30 28 27 25 22 21 23 23 21 20 20 25 24
4 5 3 2 3 2 2 2 2 3 3 3 4 4 4 7 11 15 18 20 24 28 30 29 27 28 27 26 29 33 29 23 22 20 20 22 30 40 40 33 29 29 29 28 28 28 24 21 23 23 23 24 23 23
5 2 3 2 1 2 2 7 6 3 4 3 4 3 3 8 10 8 10 16 22 27 26 25 30 27 25 27 27 28 32 32 34 33 32 32 32 33 32 31 29 28 27 27 26 26 26 25 24 23 22 23 25 24
3 3 2 3 3 2 3 5 2 1 2 2 2 4 5 3 3 5 10 17 25 29 30 31 30 33 31 29 29 30 27 34 35 34 34 36 35 34 33 32 29 28 29 29 27 26 26 26 25 25 24 24 25 25
2 1 1 2 4 5 3 4 4 5 2 2 3 2 2 2 4 5 10 12 20 25 30 33 30 25 29 29 30 33 36 37 35 28 30 29 30 30 30 30 28 28 30 28 28 28 27 29 29 30 29 30 28 26
Wind_Direction
138 143 147 147 146 149 152 156 154 152 172 135 311 303 301 329 282 224 127 128 171 148 43 37 23 42 347 21 312 302 341 333 273 247 163 236 135 71 83 26 352 38 355 34 213 100 234 331 303 323 284 57 49 21
140 142 141 141 140 143 144 143 142 135 106 352 316 302 234 354 270 199 151 151 110 84 104 97 79 48 18 282 227 297 220 258 250 323 24 19 56 49 273 100 13 40 19 82 34 100 222 12 63 30 30 34 19 3
133 132 132 132 134 133 134 129 112 83 27 331 306 319 99 110 135 195 134 121 110 110 46 52 22 24 17 353 282 145 292 322 7 41 27 72 80 352 50 41 89 360 14 70 99 6 41 47 42 23 14 12 354 351
126 125 123 122 121 121 114 103 91 35 345 330 346 104 96 116 143 147 101 92 87 96 101 355 39 14 12 24 28 306 258 338 57 19 68 60 68 29 58 87 74 304 343 347 50 10 330 62 32 358 345 345 346 343
116 113 111 105 101 97 86 85 71 37 27 64 90 103 132 129 122 102 84 68 58 66 121 153 150 14 30 39 38 36 50 77 47 52 46 54 58 84 56 69 33 343 309 55 253 268 246 293 322 334 332 326 320 317
105 98 90 82 80 82 73 67 79 85 74 99 95 149 150 129 110 79 52 30 21 13 120 115 140 18 8 14 47 38 38 39 56 76 60 48 345 89 79 73 295 330 9 184 324 303 239 277 308 331 306 310 315 298
86 77 73 68 62 67 79 79 81 100 121 107 103 107 104 109 95 66 35 310 335 46 54 124 63 358 358 355 17 60 45 53 68 91 57 44 18 45 62 60 316 331 331 325 327 332 347 331 295 323 324 314 312 307
74 66 60 59 59 54 60 88 118 135 121 114 105 101 98 92 85 43 34 35 72 87 52 55 343 355 10 337 340 22 53 29 27 80 56 52 28 50 55 296 302 324 326 338 349 356 289 309 347 340 342 330 318 316
58 55 57 51 34 25 65 130 139 137 125 120 111 104 81 41 46 5 27 44 58 61 89 54 360 328 342 346 339 352 53 61 39 62 42 67 36 45 283 286 313 307 300 303 312 323 330 319 314 324 332 335 306 308
55 60 59 42 30 53 75 147 136 132 125 128 106 56 52 2 12 329 12 26 26 23 35 45 342 305 328 325 330 14 18 61 60 53 86 69 70 271 282 283 288 304 315 322 324 335 337 332 326 316 300 320 313 308
53 56 55 47 50 79 93 109 115 122 140 78 64 70 54 29 48 39 44 44 1 27 15 319 350 333 320 327 313 26 153 19 63 311 81 64 349 280 303 313 329 332 334 326 318 311 314 307 306 318 322 315 316 317
52 52 60 60 58 87 93 103 128 109 83 86 106 94 42 29 36 67 14 8 40 38 326 351 317 298 298 339 24 344 87 34 46 337 66 45 266 280 304 298 315 323 329 321 318 312 314 314 314 310 306 305 306 308
56 58 66 75 78 82 88 93 101 106 101 68 54 51 30 336 39 53 357 334 346 334 326 316 318 314 336 18 45 44 58 22 8 42 83 208 260 311 290 301 305 320 323 316 313 314 312 309 310 308 304 309 315 313
62 59 60 66 73 86 89 86 94 81 60 59 57 36 71 7 24 233 238 250 257 281 309 311 302 24 329 31 268 67 278 44 46 37 272 264 269 297 295 304 306 311 314 314 314 315 311 309 308 314 311 314 315 308
64 65 64 66 72 77 80 84 82 79 62 68 56 54 62 253 321 283 287 306 280 272 343 1 16 39 358 54 35 47 27 23 140 230 248 284 303 303 306 312 308 312 314 311 313 309 308 312 308 307 317 316 314 313
66 72 67 72 73 75 82 86 76 72 65 69 44 44 351 39 316 319 300 287 289 302 47 47 66 48 22 89 46 21 84 254 264 257 297 304 313 301 305 307 310 309 307 306 308 311 308 304 303 305 313 314 314 311
70 74 75 77 78 80 77 72 58 51 74 55 16 2 22 301 271 298 302 317 334 62 54 72 51 244 331 40 18 155 194 270 301 300 304 309 308 308 304 313 311 306 306 306 307 309 307 312 315 312 307 319 320 317
72 82 96 77 72 67 53 43 70 68 61 9 65 328 352 330 319 334 343 358 25 35 54 114 105 43 91 69 298 274 298 297 300 302 304 305 303 304 309 306 307 306 306 307 310 313 315 314 306 298 308 313 314 310
82 80 79 82 83 82 67 37 46 80 89 302 352 0 27 359 23 19 20 22 41 55 85 42 57 44 302 273 300 300 304 307 305 309 302 303 303 305 305 308 309 305 306 310 313 307 305 303 298 306 304 315 302 303
72 70 78 92 85 58 64 39 48 76 76 260 22 355 356 12 346 5 12 11 18 51 37 49 271 250 261 284 287 287 293 299 300 302 301 306 306 302 301 303 298 300 301 303 304 311 310 312 308 308 301 303 313 308
66 62 66 69 58 63 80 35 43 120 204 87 316 21 330 356 2 357 346 345 48 66 350 249 251 286 290 285 285 282 287 288 281 276 288 297 306 306 303 300 298 295 291 296 292 295 306 294 295 304 297 288 301 301
59 61 58 57 58 61 69 29 99 33 64 224 29 22 28 7 327 322 319 40 41 252 238 264 291 300 301 298 296 292 288 293 292 287 291 295 292 299 297 297 298 291 288 288 288 285 290 294 299 295 305 299 306 311
47 33 40 35 60 48 327 12 60 4 60 330 10 26 357 344 267 330 42 258 265 303 300 291 300 303 291 298 302 302 304 293 286 288 289 290 288 286 285 286 286 285 287 287 286 283 283 294 300 300 301 302 306 301
42 41 38 52 39 31 2 19 27 25 37 25 23 2 342 302 326 32 340 286 273 320 323 320 319 313 316 308 304 304 305 303 293 294 295 291 292 294 293 291 291 286 281 287 286 282 283 281 292 293 299 293 292 292
57 353 48 5 356 45 30 14 360 28 27 340 23 357 342 352 13 349 315 292 326 333 333 332 329 325 311 308 312 314 319 315 305 304 305 301 294 298 300 298 294 292 303 285 282 282 282 282 281 286 286 283 286 289
63 318 62 340 342 65 359 39 17 353 14 4 338 282 6 27 13 330 288 284 304 327 330 329 326 321 316 315 308 312 315 321 311 297 305 312 305 296 293 296 301 305 320 299 285 282 286 288 289 288 282 287 294 295
43 344 333 35 12 91 61 42 44 75 42 12 320 339 15 24 322 278 289 302 317 326 327 326 320 312 307 311 314 318 323 325 316 311 322 326 321 308 290 274 280 302 309 304 298 290 285 286 287 291 289 287 283 286
146 32 50 318 39 9 108 42 40 17 295 278 306 17 9 324 278 271 275 314 325 329 335 340 336 332 325 333 338 336 332 332 329 324 325 323 328 327 323 318 316 310 303 308 304 302 299 296 292 292 287 284 289 293
37 337 51 19 10 34 95 134 240 241 241 139 142 279 263 243 252 275 308 321 330 336 333 338 344 350 342 342 345 349 348 345 337 337 339 335 333 337 333 326 327 334 335 331 333 321 314 312 312 315 315 309 305 306
322 358 79 40 70 15 261 193 245 299 257 243 265 288 270 264 281 307 316 330 337 340 342 345 342 346 341 340 338 345 358 357 356 338 324 317 315 320 327 334 342 342 344 340 338 341 342 332 332 332 329 324 317 313
322 36 58 45 217 250 279 308 291 267 254 252 228 227 266 304 304 307 326 344 347 348 348 342 347 354 346 346 344 339 339 352 345 348 344 329 331 333 337 343 349 351 350 352 348 343 341 337 331 325 322 319 321 323
11 70 87 1 305 326 339 16 314 317 308 341 277 229 293 329 288 290 340 349 353 353 354 354 346 352 4 4 3 1 349 345 352 352 346 345 345 346 346 352 357 357 358 357 356 353 353 349 344 343 338 338 337 335
30 32 40 6 339 351 340 7 6 336 342 302 275 227 228 212 258 303 330 352 355 351 351 354 358 3 11 12 7 4 4 6 3 354 352 352 352 354 355 358 359 1 1 359 0 360 356 354 353 351 350 352 350 352